{"data":{"norad_id":58188,"intl_designator":"2023-167P","name":"STARLINK-30826","alt_names":[],"object_type":"PAYLOAD","status":"ACTIVE","operator":null,"country":"US","launch_date":"2023-10-30","launch_site_code":"AFETR","launch_vehicle":null,"mission":null,"orbit_class":"UNKNOWN","rcs_meters":null,"size_class":null,"mass_kg":null,"dimensions":null,"purposes":["comms"],"wikipedia_slug":null,"has_3d_model":false,"image_url":null,"decayed_at":null,"tle_current":{"epoch":"2026-09-20T00:10:38.603136Z","epoch_age_seconds":183049,"freshness":"STALE","line1":"1 58188U 23167P   26263.00739124  .00000375  00000+0  23156-4 0  9999","line2":"2 58188  43.0082 125.9764 0000723 280.0809  79.9961 15.27578213160708","mean_motion":15.27578213,"eccentricity":7.23e-5,"inclination_deg":43.0082,"raan_deg":125.9764,"arg_perigee_deg":280.0809,"mean_anomaly_deg":79.9961,"bstar":2.3156e-5,"rev_number":16070,"period_min":94.266858989301,"perigee_km":482.55838282412,"apogee_km":483.55051110736,"semimajor_km":6861.1914469657,"source":"CELESTRAK","updated_at":"2026-09-21T09:00:33.828532Z"}}}